This is the latest recevied weather packets stored in our database for station/object WX7FGZ-7. If no packets are shown the sender has not sent any weather packets the latest 10 day(s).
| Time | Temp. | Humidity | Pressure | Rain* | Wind** | Luminosity | Snow |
|---|---|---|---|---|---|---|---|
| 1777602875 | 17.78° C | 18% | 1013.2 hPa | 0 mm | - | - | - |
| 1777602750 | 17.78° C | 18% | 1013.1 hPa | 0 mm | - | - | - |
| 1777602611 | 17.78° C | 18% | 1013.2 hPa | 0 mm | - | - | - |
| 1777602315 | 17.78° C | 18% | 1013.1 hPa | 0 mm | - | - | - |
| 1777601998 | 17.78° C | 18% | 1013.2 hPa | 0 mm | - | - | - |
| 1777601786 | 17.78° C | 18% | 1013.2 hPa | 0 mm | - | - | - |
| 1777601300 | 18.33° C | 17% | 1013 hPa | 0 mm | - | - | - |
| 1777600700 | 18.89° C | 17% | 1012.9 hPa | 0 mm | - | - | - |
| 1777600426 | 18.89° C | 17% | 1012.9 hPa | 0 mm | - | - | - |
| 1777600121 | 18.89° C | - | 1012.8 hPa | 0 mm | - | - | - |
| 1777599768 | 19.44° C | 17% | 1012.9 hPa | 0 mm | - | - | - |
| 1777599514 | 19.44° C | 17% | 1012.9 hPa | 0 mm | - | - | - |
| 1777598939 | 20° C | 17% | 1012.7 hPa | 0 mm | - | - | - |
| 1777598111 | 21.11° C | 16% | 1012.7 hPa | 0 mm | - | - | - |
| 1777597514 | 22.22° C | 16% | 1012.6 hPa | 0 mm | - | - | - |
| 1777596919 | 22.78° C | 15% | 1012.7 hPa | 0 mm | - | - | - |
| 1777594693 | 22.78° C | 15% | 1012.6 hPa | 0 mm | - | - | - |
| 1777594513 | 22.78° C | 15% | 1012.6 hPa | 0 mm | - | - | - |
| 1777593309 | 23.89° C | 14% | 1012.6 hPa | 0 mm | - | - | - |
| 1777592942 | 23.33° C | 14% | 1012.7 hPa | 0 mm | - | - | - |
| 1777592705 | 23.33° C | 14% | 1012.7 hPa | 0 mm | - | - | - |
| 1777592421 | 24.44° C | 13% | 1012.7 hPa | 0 mm | - | - | - |
| 1777592108 | 24.44° C | 13% | 1012.7 hPa | 0 mm | - | - | - |
| 1777590863 | 25° C | 14% | 1012.8 hPa | 0 mm | - | - | - |
| 1777590612 | 25° C | 14% | 1012.8 hPa | 0 mm | - | - | - |
* Rain latest hour (hover to see other rain measurements)
** Current wind speed in m/s (hover to see current wind gust speed)